GFSSW_con_3kmhel_282.txt.gz
Helicity
49 51 50 46 43 38 32 25 19 13 3 -1 1 7 7 18 31 60 91 101 97 77 83 96 134 134 157 175 191 191 235 190 174 141 112 43 44 86 83 138 144 161 185 165 177
64 74 77 72 63 46 32 27 20 9 -7 -10 3 7 12 31 78 122 125 118 57 32 76 115 155 194 230 216 236 264 262 216 173 167 138 95 33 89 130 141 151 208 206 154 152
82 82 79 64 47 38 32 27 13 -2 -11 3 14 14 28 61 111 93 95 109 117 97 135 122 160 188 221 259 304 311 297 252 157 107 110 80 83 93 118 146 132 136 152 161 183
82 77 63 55 52 46 46 43 12 -1 2 8 22 12 25 74 98 95 145 164 177 168 183 177 195 239 250 253 271 277 266 249 179 127 115 109 133 170 133 134 181 114 136 171 157
85 82 74 62 60 55 63 49 10 18 18 29 30 13 47 142 144 126 142 117 140 184 203 204 250 247 276 259 250 303 313 249 148 161 156 153 118 90 109 125 165 158 149 149 165
99 96 85 80 75 72 73 31 19 40 40 36 26 30 98 183 131 145 130 97 120 158 207 212 237 245 317 319 305 318 236 174 174 187 180 125 98 65 76 47 118 150 145 124 104
101 97 86 80 85 85 74 18 17 47 49 37 24 96 236 163 214 205 117 105 82 116 148 173 201 298 410 382 335 309 267 198 188 246 186 222 126 112 92 98 110 136 147 135 106
94 87 86 88 101 105 77 12 2 36 41 29 72 129 162 206 147 180 151 172 162 108 117 70 111 254 385 390 430 456 403 337 195 229 231 191 68 109 74 99 94 148 150 132 101
94 86 85 84 90 125 93 2 41 61 56 35 85 113 136 102 260 223 168 150 129 111 70 96 232 265 342 402 365 416 424 407 281 245 207 235 135 39 89 101 84 119 141 111 100
82 72 68 68 55 99 81 22 73 104 48 76 102 133 202 224 197 174 169 111 75 78 112 216 209 309 362 367 372 349 396 391 267 218 213 232 91 168 128 68 102 91 102 124 105
81 63 48 49 22 52 35 -7 45 63 88 54 99 149 223 222 107 131 106 28 70 104 189 144 298 269 176 184 164 195 185 222 170 172 136 116 88 111 144 74 81 113 120 120 121
82 65 50 42 17 44 -59 -52 -39 33 44 116 146 219 217 149 205 177 67 87 33 98 91 203 224 161 298 212 203 206 152 159 134 176 134 106 108 132 141 120 77 72 102 147 170
77 66 60 48 30 29 -28 -3 -5 64 50 141 222 259 202 161 183 149 33 -34 38 97 137 146 121 189 237 200 220 128 97 85 99 189 141 130 81 116 119 136 143 193 173 203 207
68 62 57 47 54 14 26 46 -14 38 89 180 267 259 186 58 173 43 32 34 98 137 117 64 136 131 108 128 153 142 45 -23 -83 67 289 356 52 101 90 102 151 107 98 171 212
68 67 52 69 46 72 47 33 41 48 199 293 282 90 79 75 31 140 48 75 107 100 151 161 117 116 149 183 130 71 68 45 -83 -58 95 293 218 19 125 181 171 234 212 211 210
82 79 62 73 82 74 59 39 80 193 157 410 303 304 196 123 70 79 102 63 24 146 124 143 87 75 147 157 93 86 70 89 68 -5 40 170 330 184 257 211 263 303 195 241 271
100 82 90 91 103 85 64 114 180 222 343 356 352 214 146 193 140 177 140 135 171 226 192 96 91 96 87 130 185 179 174 111 65 80 61 84 123 243 275 342 263 302 381 263 308
109 97 116 123 90 91 113 233 270 354 388 323 242 178 250 241 170 176 166 198 148 170 154 139 96 79 87 61 41 238 162 260 221 187 124 117 184 423 505 349 351 399 421 376 318
100 112 146 128 97 98 199 296 292 322 297 288 192 266 245 237 190 221 210 184 136 90 134 103 76 48 51 41 44 58 110 200 117 97 139 88 82 412 663 650 559 463 423 521 464
98 139 162 139 91 150 253 274 314 234 221 201 262 266 276 226 231 236 168 99 102 61 82 73 93 -1 24 5 44 7 56 107 151 225 160 183 327 371 496 571 559 534 500 418 459
127 185 139 114 112 231 266 271 231 176 187 183 216 217 212 244 216 168 111 78 78 29 65 101 107 47 47 16 10 64 73 74 68 124 280 262 502 562 592 518 523 495 456 423 411
142 204 123 104 239 220 249 182 166 160 169 158 169 150 202 215 196 141 106 72 18 17 59 59 111 70 48 -3 2 -25 61 58 12 111 114 169 194 400 525 563 639 573 543 431 388
146 130 97 136 254 211 170 163 148 144 146 147 158 142 189 201 184 116 68 61 18 54 78 52 84 50 15 29 23 -3 13 70 131 93 16 101 135 269 416 523 523 523 532 515 433
125 187 170 165 136 174 177 139 146 116 105 107 110 110 146 125 100 111 69 44 41 20 -24 53 64 89 41 0 -8 29 51 94 77 123 69 118 169 313 423 354 371 422 455 476 450
122 167 164 218 168 165 149 144 143 154 120 94 96 80 97 130 114 79 58 46 33 21 56 74 78 44 53 66 34 -26 -20 92 107 138 60 107 121 226 313 228 262 296 357 406 425
149 161 187 181 146 164 158 154 170 175 169 120 113 54 100 127 106 50 60 63 42 33 59 40 45 32 21 30 55 -7 9 -5 68 122 76 62 100 212 196 174 167 217 316 403 411
134 142 202 172 220 256 211 181 159 155 142 88 90 112 90 84 92 83 91 105 77 51 40 23 44 55 29 44 -3 27 1 -58 -37 55 97 111 85 92 112 124 189 238 248 285 330

GFSSW_con_3kmhel_285.txt.gz
Helicity
49 50 51 54 52 48 47 45 36 25 11 -1 -4 6 14 39 40 77 60 58 71 61 70 81 124 140 158 171 186 178 185 169 160 127 60 58 28 24 42 87 89 107 182 123 138
64 72 72 66 58 56 56 53 44 25 2 -4 -1 13 27 54 76 104 72 60 48 43 85 87 115 154 183 184 197 243 238 180 167 160 99 79 59 40 52 68 94 115 144 179 141
94 84 78 70 70 71 74 73 31 15 12 9 10 20 31 55 109 39 85 101 108 113 120 119 136 151 176 215 240 230 298 259 198 143 88 59 53 51 65 74 69 69 107 147 168
92 86 82 81 86 80 72 49 18 23 17 18 20 17 31 64 78 71 117 105 114 105 136 150 165 191 192 199 200 226 228 220 230 152 124 96 83 92 75 99 104 90 115 133 137
90 90 85 84 72 68 62 29 4 28 17 15 25 41 52 136 153 104 89 93 94 122 140 148 162 166 203 212 221 226 216 199 182 137 136 143 111 104 92 93 122 126 101 116 134
107 109 101 79 67 60 58 12 -7 23 36 20 21 33 93 189 97 119 97 73 91 132 140 132 141 168 207 225 231 275 218 186 177 148 148 120 91 157 93 102 102 109 119 112 128
122 119 113 99 83 74 75 4 -6 12 29 24 23 76 223 177 134 127 111 99 98 91 109 101 140 216 238 214 223 215 170 141 164 221 204 129 98 146 110 170 117 120 103 125 112
106 107 100 95 80 89 80 5 -0 14 27 27 39 91 164 152 112 223 215 194 173 90 89 68 108 170 219 222 262 266 235 212 253 175 273 271 104 128 100 109 138 125 153 132 128
94 89 81 85 72 111 83 -4 35 32 54 32 82 121 151 125 219 238 170 166 150 133 60 64 138 184 239 243 241 275 245 196 138 197 277 212 156 79 51 102 80 113 132 140 127
77 73 65 58 41 94 66 19 51 93 70 53 108 131 210 212 195 207 187 96 97 106 115 150 158 206 223 304 269 231 283 232 197 222 40 170 204 142 148 67 88 121 122 145 164
76 61 57 41 14 41 38 4 49 76 101 112 126 171 235 236 167 208 124 49 43 46 102 57 235 216 339 361 337 309 309 297 220 179 123 122 99 137 118 167 133 115 118 128 189
83 71 58 37 15 35 -29 -30 -39 29 45 98 123 203 224 170 302 257 34 126 50 59 83 203 148 307 227 270 309 289 302 251 178 184 167 130 133 111 122 128 154 134 167 216 218
75 66 58 38 35 40 -25 -4 -9 14 72 156 254 278 244 201 217 240 35 -91 97 139 145 139 175 235 257 264 277 242 272 229 189 83 17 40 85 36 122 212 248 263 178 190 221
74 66 48 31 55 20 36 43 -8 14 127 165 277 278 227 157 297 2 -27 11 134 112 107 56 112 215 234 234 337 253 276 263 236 172 134 58 47 -43 139 262 321 265 250 225 222
77 73 51 83 62 74 51 31 55 51 185 277 310 103 131 219 118 118 18 58 73 72 132 157 162 177 211 241 261 204 191 182 144 157 120 54 93 -70 52 223 350 343 303 294 249
89 80 69 82 104 85 61 45 72 172 117 397 305 303 263 193 60 72 91 11 -15 117 109 123 109 116 163 182 120 99 121 142 103 142 164 63 103 3 205 327 508 389 362 355 286
96 81 102 106 102 83 76 117 162 193 303 326 321 320 229 204 167 192 84 59 82 189 190 152 146 113 78 158 82 135 135 54 96 180 203 63 46 172 346 719 682 537 486 475 422
107 106 136 126 89 91 141 230 247 314 349 352 295 208 272 261 216 147 91 102 94 178 179 206 207 156 80 39 15 61 77 147 146 180 123 74 117 384 573 474 495 557 470 468 537
102 112 138 127 104 110 225 287 257 280 311 356 235 316 313 229 172 181 131 118 114 119 236 223 185 56 26 45 42 58 76 93 91 65 77 136 300 189 611 567 549 534 506 500 510
97 137 146 124 86 162 264 253 321 302 281 221 294 316 305 232 200 219 160 117 134 91 65 118 149 31 35 32 37 39 29 87 113 58 86 104 407 530 328 424 503 564 479 447 448
112 148 133 98 118 248 282 298 303 213 211 237 252 243 199 210 187 194 174 125 109 73 51 111 108 65 65 43 23 32 58 29 51 54 52 5 78 360 434 294 315 515 512 431 442
118 158 131 110 250 259 288 208 202 209 188 178 171 151 174 173 197 190 162 104 83 53 64 54 106 98 61 40 14 -2 -40 -19 5 116 10 -3 -106 68 239 323 300 283 402 406 393
113 113 98 153 268 259 218 219 189 181 146 174 150 135 133 166 169 143 113 57 51 55 63 55 80 108 56 84 62 43 -0 11 24 41 59 6 -17 92 163 216 288 354 395 450 444
105 166 159 181 146 230 238 202 188 130 133 149 139 118 142 126 106 152 132 67 43 45 -5 2 72 59 68 55 45 28 -13 11 -9 81 54 68 46 133 177 227 276 329 385 414 438
113 138 151 235 195 198 191 169 179 143 154 166 166 127 139 118 125 134 96 56 31 35 52 64 80 75 75 95 92 23 -62 -1 -1 57 61 65 49 131 160 211 225 214 271 307 401
154 170 199 219 183 183 133 135 149 137 207 180 211 125 136 146 145 121 88 61 39 45 58 34 49 50 39 61 78 64 22 -18 -5 18 16 37 23 122 96 128 176 233 231 294 322
175 207 282 256 254 252 203 178 116 126 140 126 128 152 121 104 101 103 108 81 91 90 78 23 41 65 47 67 43 27 8 -22 -52 -7 -2 65 40 50 58 72 114 208 193 223 253

GFSSW_con_3kmhel_288.txt.gz
Helicity
66 67 64 61 62 55 50 46 42 30 16 5 1 14 37 62 29 42 68 37 46 49 27 36 54 70 85 96 119 119 85 51 51 63 40 18 21 13 34 38 58 62 85 110 64
64 68 65 56 52 58 62 60 36 29 27 17 12 20 34 49 64 119 47 67 62 69 44 57 71 81 89 102 119 117 115 83 106 65 44 50 40 35 23 32 46 55 35 61 67
70 62 59 61 65 73 80 58 37 43 31 23 20 27 39 38 63 39 86 101 92 85 80 94 103 98 94 111 135 137 124 52 67 57 55 47 31 14 23 33 32 55 75 78 70
71 65 63 66 70 75 81 52 31 51 35 28 28 31 40 41 55 64 103 78 73 77 90 108 114 116 121 118 120 135 93 76 73 80 62 40 29 24 29 24 52 60 83 83 68
77 72 70 70 78 78 80 38 7 28 36 28 27 37 34 105 117 81 62 71 67 82 118 116 109 132 114 153 132 91 84 88 78 72 60 57 51 33 31 59 55 73 88 88 95
89 86 80 71 74 82 82 19 -8 6 14 20 18 6 43 128 100 89 102 53 107 140 137 136 167 173 174 145 116 168 124 98 92 86 89 77 45 51 57 61 57 53 60 79 88
89 83 83 90 85 94 90 13 -14 -8 4 29 30 30 165 152 112 130 109 84 120 124 180 159 134 156 205 141 153 120 110 103 99 70 71 62 54 99 55 59 63 55 70 66 81
96 93 101 106 97 97 95 13 21 -3 7 37 62 67 160 124 122 217 225 163 141 122 117 106 72 123 145 165 150 138 140 108 169 174 122 76 37 92 113 82 38 37 46 60 83
97 90 92 91 91 91 87 5 39 28 53 56 74 96 168 109 184 247 207 236 228 198 143 80 71 162 158 155 145 152 138 141 123 195 128 146 54 119 114 143 113 53 38 70 65
87 83 81 76 67 85 68 13 44 45 69 38 104 116 200 215 228 285 211 198 222 213 138 190 153 150 144 190 170 189 215 164 120 224 266 185 64 43 56 90 123 133 130 101 88
80 74 71 59 31 43 37 -1 20 36 96 149 161 226 283 213 249 322 183 137 152 215 298 147 141 202 316 324 298 267 249 179 140 150 182 169 145 77 100 92 70 121 150 148 107
78 71 57 43 29 37 9 27 30 64 68 135 192 259 274 205 252 357 153 202 197 209 121 123 182 259 265 278 287 282 245 207 186 184 214 247 239 202 131 146 126 85 124 111 130
78 75 74 48 35 42 31 29 5 9 60 164 252 283 234 176 281 282 164 56 138 181 174 173 222 268 293 290 302 267 302 302 291 237 227 200 189 131 74 77 70 58 172 209 177
71 72 65 51 51 45 60 46 16 14 64 195 219 236 235 172 293 103 22 92 152 186 149 131 188 214 222 198 306 280 274 306 295 287 296 329 257 245 239 160 64 67 139 172 131
79 78 70 104 98 91 75 63 66 17 126 237 274 142 220 260 219 219 69 28 127 104 92 201 180 205 207 267 296 247 192 184 184 204 201 147 199 143 76 208 441 410 408 378 345
90 78 79 94 108 104 67 73 54 75 157 371 298 288 289 270 217 115 97 45 17 91 87 84 96 117 170 214 180 122 145 154 86 100 182 124 160 145 267 354 410 458 398 459 362
98 77 102 104 127 92 81 85 90 144 290 280 276 330 298 295 210 217 208 156 139 176 198 159 102 171 163 246 146 182 198 167 99 109 112 74 135 233 317 366 336 321 418 502 426
97 90 128 129 99 100 116 129 196 277 305 344 314 280 311 262 233 242 180 180 107 112 130 201 226 205 150 138 114 92 126 174 257 221 185 105 212 354 331 402 346 348 311 510 602
87 92 113 119 92 94 153 216 250 275 316 332 286 316 357 271 249 199 178 117 135 96 143 189 172 123 51 44 43 110 111 60 91 59 87 57 58 106 383 479 473 468 488 501 600
88 103 141 99 83 132 197 239 323 337 324 278 338 331 335 271 227 183 149 169 156 118 119 202 208 103 48 22 55 54 68 68 98 109 102 75 -19 166 251 377 432 436 476 576 523
88 102 148 89 98 195 256 319 318 276 245 282 280 306 251 240 167 179 171 134 108 116 78 112 154 93 28 69 70 43 52 48 25 45 93 110 -21 24 43 85 267 236 288 363 574
97 137 141 79 195 252 291 283 222 246 189 210 185 154 163 166 150 145 87 79 83 83 104 90 125 80 43 78 90 80 61 32 19 53 49 18 -62 10 -10 14 73 141 182 241 269
109 116 104 118 213 262 236 245 212 198 182 175 149 123 131 155 170 84 65 62 70 67 108 76 89 86 81 68 78 82 48 21 19 14 -23 9 -54 19 14 54 95 98 123 190 193
94 156 184 164 171 236 232 215 200 134 128 127 138 140 155 146 95 125 93 71 87 47 19 14 67 61 39 76 90 63 55 9 3 21 45 17 2 16 53 78 136 178 113 136 177
130 200 208 244 218 194 179 178 157 149 127 121 150 95 172 213 142 94 57 44 72 30 69 56 67 69 65 70 90 84 49 5 28 35 13 8 -22 14 45 74 108 139 157 139 236
199 181 195 200 171 157 162 156 119 85 165 132 126 60 143 181 128 90 63 41 49 56 59 47 83 53 41 50 59 83 61 36 23 20 -9 12 -8 11 30 16 51 97 163 168 204
149 131 148 198 191 185 192 128 111 149 147 72 84 103 119 66 47 73 49 60 77 71 38 64 66 51 49 38 54 32 56 44 12 -3 -17 1 16 35 42 25 12 85 106 169 193

GFSSW_con_3kmhel_291.txt.gz
Helicity
65 74 77 73 67 58 55 47 29 28 16 10 10 14 18 6 -21 30 62 42 34 69 20 21 29 38 37 51 54 58 39 18 23 38 53 33 28 22 13 37 59 40 46 79 79
72 68 63 57 55 60 66 51 33 36 25 18 16 23 17 38 24 74 60 77 83 111 46 45 49 44 44 60 71 56 50 33 82 94 68 68 35 36 37 40 40 40 28 12 47
60 53 48 50 57 63 63 45 27 40 26 27 27 18 -4 -0 12 61 107 116 83 78 54 60 57 57 52 75 82 79 85 25 42 71 67 38 25 16 22 28 17 37 58 89 37
53 55 60 67 71 78 84 62 28 50 42 34 33 25 1 13 72 49 134 116 66 56 40 52 62 73 76 78 82 87 52 43 45 64 63 37 36 30 26 17 22 31 47 59 52
71 72 74 74 74 83 99 58 26 46 57 55 52 49 35 69 115 100 121 96 90 93 101 95 81 88 82 90 115 82 42 59 62 75 53 52 28 8 20 15 10 28 34 38 37
78 87 85 79 75 70 94 44 21 25 42 51 48 24 49 98 95 102 115 101 125 121 112 112 142 167 140 137 148 206 198 120 102 59 32 22 20 41 26 29 20 14 11 18 22
92 92 87 87 84 70 84 34 26 13 14 25 42 41 132 170 143 166 145 105 114 166 156 166 163 159 266 184 219 168 144 119 54 4 37 42 27 2 -52 -44 -21 13 35 33 46
95 94 92 92 89 74 83 26 25 19 19 32 41 42 145 137 167 210 176 120 181 150 144 144 140 169 189 217 179 161 163 129 129 107 68 38 -2 104 127 193 122 77 57 25 42
85 92 89 98 94 75 89 22 38 33 46 50 60 65 149 129 151 213 251 243 209 195 157 126 130 168 169 186 215 140 139 112 94 91 132 137 20 124 165 197 166 182 132 147 95
84 85 79 75 69 53 70 15 31 26 55 52 87 112 175 197 228 277 243 243 257 239 182 226 177 174 164 216 215 260 256 190 162 169 272 256 108 108 149 143 97 103 123 105 103
78 76 71 67 55 46 53 7 15 25 130 163 204 231 276 231 251 317 290 238 220 222 328 219 208 200 402 345 274 218 178 128 150 202 278 222 145 82 155 151 133 117 118 91 111
71 64 67 51 45 40 22 52 77 103 90 126 198 283 309 251 288 383 246 243 255 319 274 186 195 359 252 171 161 185 199 191 156 209 273 275 238 149 187 163 142 165 153 134 81
68 65 70 58 33 41 75 75 46 42 55 185 276 336 296 192 270 305 277 214 245 210 233 187 178 222 184 210 212 213 282 249 264 241 252 225 145 108 77 43 14 248 347 43 44
73 64 75 53 41 64 92 64 49 44 84 219 203 236 228 174 251 185 162 157 143 221 179 124 275 222 230 214 182 215 277 336 331 271 191 413 178 160 124 106 144 233 364 584 760
74 73 66 89 102 103 95 71 63 41 189 253 271 155 224 248 254 251 147 128 238 179 144 229 245 225 177 156 340 262 278 225 199 213 199 242 246 195 63 133 527 537 480 430 671
85 81 74 80 101 119 82 72 57 103 196 345 267 258 227 249 282 247 134 28 91 108 38 83 206 163 120 251 214 149 177 185 89 75 245 78 130 144 279 381 351 368 349 284 292
91 85 88 104 153 92 84 97 117 233 292 287 268 268 289 313 258 251 243 251 236 209 159 196 80 155 125 227 138 176 175 192 150 165 119 39 196 263 297 373 353 219 196 249 191
92 60 118 137 106 92 96 135 262 293 419 344 297 264 288 339 245 227 199 190 156 78 166 202 197 154 200 225 182 131 178 231 264 240 248 206 294 301 166 159 231 235 186 177 199
55 88 101 127 99 97 160 234 306 448 365 309 266 282 312 239 287 224 164 182 206 110 157 219 135 231 148 123 138 160 204 169 166 89 120 85 163 137 282 204 210 236 234 198 172
73 82 153 102 89 141 235 259 421 410 351 305 351 339 332 316 250 204 204 174 143 111 110 197 180 118 114 96 63 92 125 158 123 203 166 121 96 224 210 152 110 140 185 192 197
63 91 170 102 111 206 298 319 390 307 271 285 338 355 267 271 249 213 240 159 150 108 97 135 130 110 93 111 127 110 93 74 72 79 103 95 114 82 -16 -68 -16 27 130 135 168
79 126 158 119 219 317 309 337 301 257 208 241 246 216 220 239 189 157 143 135 106 93 111 143 192 143 66 130 85 122 129 62 79 96 83 93 70 115 16 -12 -9 11 52 118 117
88 133 126 168 264 250 314 269 261 232 216 230 195 145 147 141 203 130 139 126 70 79 134 137 135 151 128 94 143 103 89 82 59 44 20 48 91 55 4 -7 -3 25 44 85 128
101 175 215 195 213 295 305 237 208 169 148 143 154 130 94 100 116 187 139 96 70 56 54 44 77 94 74 27 31 63 82 85 64 57 75 85 76 72 48 44 36 42 53 65 118
190 307 296 325 262 218 208 188 152 168 108 139 144 97 88 108 105 112 77 70 70 51 43 74 87 19 18 70 83 95 97 79 64 76 56 83 39 40 21 35 9 25 45 77 110
207 239 233 196 140 120 111 99 91 88 136 126 95 69 78 115 89 97 149 88 71 73 87 65 83 55 45 70 63 56 61 79 53 56 11 9 3 28 3 6 6 9 40 65 114
230 206 209 193 111 148 79 87 94 114 122 76 71 82 79 35 37 35 56 52 78 64 48 66 52 69 27 70 61 46 85 81 71 66 25 2 8 2 13 9 9 15 41 66 97

GFSSW_con_3kmhel_297.txt.gz
Helicity
55 59 60 59 55 55 52 22 15 21 18 15 5 -11 -1 52 8 54 41 26 34 70 106 54 27 30 35 33 38 49 71 39 34 59 87 72 84 94 37 42 44 63 73 82 36
47 54 58 58 55 60 61 31 22 33 32 29 14 -13 -2 30 5 49 55 66 56 42 76 122 112 59 68 51 65 85 77 23 115 126 110 86 81 73 56 33 24 28 65 66 48
55 58 58 60 63 66 67 40 24 35 41 43 32 0 3 29 50 53 68 94 75 49 52 79 86 78 80 68 71 94 74 100 73 115 103 87 87 81 70 32 35 32 37 31 46
52 55 56 63 67 61 59 49 27 31 40 50 51 48 38 51 93 55 46 49 65 78 91 101 113 131 125 118 93 117 71 86 65 108 97 77 81 79 81 38 49 50 48 42 48
54 57 61 64 66 62 54 56 28 30 44 52 63 73 67 100 111 78 95 87 68 112 123 140 155 179 151 157 158 132 109 130 131 106 91 100 93 79 70 95 78 41 61 69 58
56 60 61 61 59 55 49 55 25 29 33 46 65 82 92 121 115 102 116 93 105 131 164 186 182 185 182 171 191 195 179 137 120 86 85 82 74 154 45 184 223 206 229 204 155
53 58 61 62 56 50 41 48 17 20 31 43 59 95 129 168 154 151 144 107 136 143 166 182 184 214 248 184 243 211 186 162 118 91 93 123 148 50 191 263 296 294 224 227 204
42 43 48 48 47 39 27 30 14 18 33 48 75 106 133 138 143 172 186 122 189 140 136 101 124 152 180 204 237 202 196 200 107 201 374 362 250 381 431 361 311 300 224 179 214
31 33 37 43 38 32 18 18 8 20 34 53 112 132 146 131 133 118 139 143 134 118 91 104 162 173 217 221 261 218 262 237 306 415 430 389 341 347 267 212 215 185 120 74 83
30 36 27 27 25 28 29 6 32 41 59 56 96 142 155 180 161 163 156 151 128 145 157 168 191 229 262 307 310 304 355 362 337 374 243 278 197 232 173 139 51 15 64 106 144
24 25 17 17 23 24 53 44 84 97 123 132 170 217 258 195 175 205 179 176 151 184 222 224 278 235 285 339 355 327 316 300 283 218 238 174 124 65 4 -4 39 33 98 146 211
26 20 10 16 24 39 45 63 65 93 118 140 222 282 266 217 253 243 221 198 237 239 247 319 275 293 290 313 317 288 265 243 147 255 216 169 91 65 50 244 328 410 339 251 257
36 28 17 16 11 62 55 61 52 76 127 204 246 239 154 173 210 202 210 217 266 329 365 301 299 245 289 311 315 293 266 235 220 173 101 146 57 31 87 323 368 338 287 233 194
42 35 28 24 71 50 84 59 57 84 164 182 139 168 151 175 237 165 208 244 286 338 323 258 276 331 296 261 243 272 252 270 259 256 157 245 126 116 168 357 447 348 251 195 198
42 32 29 64 69 103 68 60 61 96 231 225 211 127 184 232 243 272 229 290 387 388 383 314 278 262 258 252 264 232 289 270 221 186 186 90 243 125 258 345 341 279 222 191 109
21 27 37 88 91 82 79 84 117 212 165 331 315 233 285 263 278 293 299 251 265 368 321 236 217 212 177 266 259 285 279 285 229 254 327 170 188 265 236 255 223 198 148 124 47
4 18 58 89 89 89 113 140 199 252 294 310 292 295 320 333 342 331 356 399 378 470 430 286 216 253 257 237 259 325 298 212 229 273 159 331 336 295 237 118 108 131 88 5 -20
-2 23 55 116 119 126 159 217 272 279 392 454 425 368 417 398 388 393 376 361 290 283 296 243 212 189 249 241 242 244 210 211 131 188 236 242 264 212 42 -11 28 2 0 38 29
29 58 82 93 110 153 241 330 276 361 379 433 417 430 487 407 397 363 262 312 198 204 178 240 207 264 317 271 227 196 241 139 220 194 213 196 230 134 166 91 -20 -20 -8 -17 17
56 66 82 105 141 224 336 290 382 412 414 410 498 437 557 426 375 332 317 282 285 246 207 198 266 181 226 253 256 228 185 259 316 247 269 236 199 139 117 65 44 9 -43 -44 -52
53 73 95 167 179 314 328 305 399 359 327 372 440 470 440 413 353 388 394 333 300 249 238 199 206 163 181 217 173 209 244 224 239 298 260 215 146 65 20 -14 -18 -16 -70 -92 -62
58 86 147 203 242 295 276 318 319 326 250 265 304 310 342 343 349 333 304 235 228 246 212 119 182 181 118 109 88 139 139 196 258 292 238 215 136 109 109 85 46 -6 -43 -42 -16
78 88 163 238 228 285 345 374 318 304 293 279 256 207 227 263 292 245 247 152 206 289 200 152 220 223 165 150 139 148 114 167 198 178 161 173 118 203 159 75 38 8 -5 -6 21
106 159 224 214 192 295 352 274 272 236 232 219 230 208 209 214 163 233 183 139 130 206 153 182 267 223 183 136 125 121 131 153 175 178 153 167 164 150 71 27 20 -2 -5 12 28
163 175 271 329 259 272 238 218 190 184 160 203 225 149 182 209 185 183 127 119 122 141 151 298 324 220 128 106 117 102 125 172 189 177 159 132 113 38 28 8 -6 24 20 15 21
198 259 284 252 207 213 142 186 138 119 166 164 213 154 135 214 209 198 142 111 116 86 86 209 274 196 151 89 55 97 81 158 176 167 140 126 61 53 20 22 40 27 5 -3 9
185 186 221 241 219 205 164 144 134 137 138 148 165 180 180 118 120 136 137 112 153 181 145 211 242 224 172 103 85 110 160 208 177 145 118 108 50 35 18 27 15 6 -16 -24 -10